Terminal Aerodrome Forecast
Issued by NWS Nashville, TN

Home | Current Version | Previous Version | Text Only | Print | Product List | Glossary On
Versions: 1 2 3 4 5 6 7 8 9 10 11 12 13 14 15 16 17 18 19 20 21 22 23
000
FTUS44 KOHX 241100
TAFCSV
TAF
KCSV 241132Z 2412/2512 15003KT P6SM SCT250
     FM241400 16008G15KT P6SM SCT050 BKN250
     FM251000 18010G17KT P6SM OVC050=

USA.gov is the U.S. government's official web portal to all federal, state and local government web resources and services.